Year,Month,Day,Hour,Minute,Value (Times are PST for temperature in C)
2015,08,11,00,00,18.80
2015,08,11,00,01,18.80
2015,08,11,00,02,18.80
2015,08,11,00,03,18.80
2015,08,11,00,04,18.70
2015,08,11,00,05,18.80
2015,08,11,00,06,18.80
2015,08,11,00,07,18.70
2015,08,11,00,08,18.70
2015,08,11,00,09,18.70
2015,08,11,00,10,18.60
2015,08,11,00,11,18.60
2015,08,11,00,12,18.50
2015,08,11,00,13,18.40
2015,08,11,00,14,18.30
2015,08,11,00,15,18.20
2015,08,11,00,16,18.20
2015,08,11,00,17,18.10
2015,08,11,00,18,18.10
2015,08,11,00,19,18.00
2015,08,11,00,20,17.90
2015,08,11,00,21,17.80
2015,08,11,00,22,17.70
2015,08,11,00,23,17.60
2015,08,11,00,24,17.50
2015,08,11,00,25,17.40
2015,08,11,00,26,17.40
2015,08,11,00,27,17.30
2015,08,11,00,28,17.20
2015,08,11,00,29,17.10
2015,08,11,00,30,17.10
2015,08,11,00,31,17.00
2015,08,11,00,32,16.90
2015,08,11,00,33,16.90
2015,08,11,00,34,16.80
2015,08,11,00,35,16.80
2015,08,11,00,36,16.70
2015,08,11,00,37,16.60
2015,08,11,00,38,16.60
2015,08,11,00,39,16.60
2015,08,11,00,40,16.50
2015,08,11,00,41,16.50
2015,08,11,00,42,16.40
2015,08,11,00,43,16.40
2015,08,11,00,44,16.30
2015,08,11,00,45,16.30
2015,08,11,00,46,16.20
2015,08,11,00,47,16.20
2015,08,11,00,48,16.20
2015,08,11,00,49,16.10
2015,08,11,00,50,16.10
2015,08,11,00,51,16.00
2015,08,11,00,52,15.90
2015,08,11,00,53,15.90
2015,08,11,00,54,15.90
2015,08,11,00,55,15.80
2015,08,11,00,56,15.80
2015,08,11,00,57,15.80
2015,08,11,00,58,15.70
2015,08,11,00,59,15.70
2015,08,11,01,00,15.70
2015,08,11,01,01,15.60
2015,08,11,01,02,15.60
2015,08,11,01,03,15.60
2015,08,11,01,04,15.60
2015,08,11,01,05,15.50
2015,08,11,01,06,15.50
2015,08,11,01,07,15.50
2015,08,11,01,08,15.40
2015,08,11,01,09,15.40
2015,08,11,01,10,15.40
2015,08,11,01,11,15.40
2015,08,11,01,12,15.30
2015,08,11,01,13,15.30
2015,08,11,01,14,15.30
2015,08,11,01,15,15.20
2015,08,11,01,16,15.20
2015,08,11,01,17,15.20
2015,08,11,01,18,15.20
2015,08,11,01,19,15.20
2015,08,11,01,20,15.10
2015,08,11,01,21,15.10
2015,08,11,01,22,15.10
2015,08,11,01,23,15.10
2015,08,11,01,24,15.10
2015,08,11,01,25,15.00
2015,08,11,01,26,15.00
2015,08,11,01,27,15.00
2015,08,11,01,28,14.90
2015,08,11,01,29,14.90
2015,08,11,01,30,14.90
2015,08,11,01,31,14.90
2015,08,11,01,32,14.80
2015,08,11,01,33,14.80
2015,08,11,01,34,14.80
2015,08,11,01,35,14.70
2015,08,11,01,36,14.70
2015,08,11,01,37,14.70
2015,08,11,01,38,14.70
2015,08,11,01,39,14.70
2015,08,11,01,40,14.70
2015,08,11,01,41,14.60
2015,08,11,01,42,14.60
2015,08,11,01,43,14.60
2015,08,11,01,44,14.60
2015,08,11,01,45,14.50
2015,08,11,01,46,14.50
2015,08,11,01,47,14.50
2015,08,11,01,48,14.50
2015,08,11,01,49,14.50
2015,08,11,01,50,14.50
2015,08,11,01,51,14.60
2015,08,11,01,52,14.60
2015,08,11,01,53,14.60
2015,08,11,01,54,14.60
2015,08,11,01,55,14.60
2015,08,11,01,56,14.60
2015,08,11,01,57,14.60
2015,08,11,01,58,14.60
2015,08,11,01,59,14.50
2015,08,11,02,00,14.50
2015,08,11,02,01,14.50
2015,08,11,02,02,14.50
2015,08,11,02,03,14.50
2015,08,11,02,04,14.40
2015,08,11,02,05,14.40
2015,08,11,02,06,14.40
2015,08,11,02,07,14.40
2015,08,11,02,08,14.40
2015,08,11,02,09,14.30
2015,08,11,02,10,14.30
2015,08,11,02,11,14.30
2015,08,11,02,12,14.30
2015,08,11,02,13,14.30
2015,08,11,02,14,14.30
2015,08,11,02,15,14.30
2015,08,11,02,16,14.30
2015,08,11,02,17,14.20
2015,08,11,02,18,14.20
2015,08,11,02,19,14.20
2015,08,11,02,20,14.20
2015,08,11,02,21,14.20
2015,08,11,02,22,14.20
2015,08,11,02,23,14.10
2015,08,11,02,24,14.10
2015,08,11,02,25,14.10
2015,08,11,02,26,14.10
2015,08,11,02,27,14.10
2015,08,11,02,28,14.10
2015,08,11,02,29,14.10
2015,08,11,02,30,14.00
2015,08,11,02,31,14.00
2015,08,11,02,32,14.00
2015,08,11,02,33,14.00
2015,08,11,02,34,13.90
2015,08,11,02,35,13.90
2015,08,11,02,36,13.90
2015,08,11,02,37,13.90
2015,08,11,02,38,13.90
2015,08,11,02,39,13.90
2015,08,11,02,40,13.90
2015,08,11,02,41,13.90
2015,08,11,02,42,13.90
2015,08,11,02,43,13.90
2015,08,11,02,44,13.80
2015,08,11,02,45,13.80
2015,08,11,02,46,13.80
2015,08,11,02,47,13.80
2015,08,11,02,48,13.80
2015,08,11,02,49,13.80
2015,08,11,02,50,13.80
2015,08,11,02,51,13.80
2015,08,11,02,52,13.80
2015,08,11,02,53,13.70
2015,08,11,02,54,13.70
2015,08,11,02,55,13.70
2015,08,11,02,56,13.70
2015,08,11,02,57,13.70
2015,08,11,02,58,13.70
2015,08,11,02,59,13.70
2015,08,11,03,00,13.70
2015,08,11,03,01,13.70
2015,08,11,03,02,13.70
2015,08,11,03,03,13.70
2015,08,11,03,04,13.70
2015,08,11,03,05,13.60
2015,08,11,03,06,13.60
2015,08,11,03,07,13.60
2015,08,11,03,08,13.60
2015,08,11,03,09,13.60
2015,08,11,03,10,13.60
2015,08,11,03,11,13.60
2015,08,11,03,12,13.60
2015,08,11,03,13,13.50
2015,08,11,03,14,13.50
2015,08,11,03,15,13.50
2015,08,11,03,16,13.40
2015,08,11,03,17,13.40
2015,08,11,03,18,13.40
2015,08,11,03,19,13.40
2015,08,11,03,20,13.40
2015,08,11,03,21,13.40
2015,08,11,03,22,13.40
2015,08,11,03,23,13.40
2015,08,11,03,24,13.40
2015,08,11,03,25,13.40
2015,08,11,03,26,13.40
2015,08,11,03,27,13.40
2015,08,11,03,28,13.40
2015,08,11,03,29,13.40
2015,08,11,03,30,13.40
2015,08,11,03,31,13.40
2015,08,11,03,32,13.40
2015,08,11,03,33,13.40
2015,08,11,03,34,13.40
2015,08,11,03,35,13.40
2015,08,11,03,36,13.40
2015,08,11,03,37,13.40
2015,08,11,03,38,13.40
2015,08,11,03,39,13.30
2015,08,11,03,40,13.30
2015,08,11,03,41,13.30
2015,08,11,03,42,13.30
2015,08,11,03,43,13.30
2015,08,11,03,44,13.30
2015,08,11,03,45,13.30
2015,08,11,03,46,13.30
2015,08,11,03,47,13.20
2015,08,11,03,48,13.20
2015,08,11,03,49,13.20
2015,08,11,03,50,13.20
2015,08,11,03,51,13.20
2015,08,11,03,52,13.20
2015,08,11,03,53,13.20
2015,08,11,03,54,13.20
2015,08,11,03,55,13.20
2015,08,11,03,56,13.20
2015,08,11,03,57,13.20
2015,08,11,03,58,13.20
2015,08,11,03,59,13.20
2015,08,11,04,00,13.20
2015,08,11,04,01,13.20
2015,08,11,04,02,13.20
2015,08,11,04,03,13.20
2015,08,11,04,04,13.20
2015,08,11,04,05,13.20
2015,08,11,04,06,13.20
2015,08,11,04,07,13.20
2015,08,11,04,08,13.20
2015,08,11,04,09,13.20
2015,08,11,04,10,13.20
2015,08,11,04,11,13.20
2015,08,11,04,12,13.20
2015,08,11,04,13,13.20
2015,08,11,04,14,13.20
2015,08,11,04,15,13.20
2015,08,11,04,16,13.10
2015,08,11,04,17,13.10
2015,08,11,04,18,13.10
2015,08,11,04,19,13.10
2015,08,11,04,20,13.10
2015,08,11,04,21,13.00
2015,08,11,04,22,13.00
2015,08,11,04,23,13.00
2015,08,11,04,24,13.00
2015,08,11,04,25,12.90
2015,08,11,04,26,12.90
2015,08,11,04,27,13.00
2015,08,11,04,28,13.00
2015,08,11,04,29,13.00
2015,08,11,04,30,12.90
2015,08,11,04,31,12.90
2015,08,11,04,32,12.90
2015,08,11,04,33,12.90
2015,08,11,04,34,12.90
2015,08,11,04,35,12.90
2015,08,11,04,36,12.80
2015,08,11,04,37,12.80
2015,08,11,04,38,12.80
2015,08,11,04,39,12.80
2015,08,11,04,40,12.80
2015,08,11,04,41,12.80
2015,08,11,04,42,12.80
2015,08,11,04,43,12.70
2015,08,11,04,44,12.70
2015,08,11,04,45,12.70
2015,08,11,04,46,12.70
2015,08,11,04,47,12.70
2015,08,11,04,48,12.70
2015,08,11,04,49,12.70
2015,08,11,04,50,12.70
2015,08,11,04,51,12.60
2015,08,11,04,52,12.60
2015,08,11,04,53,12.60
2015,08,11,04,54,12.70
2015,08,11,04,55,12.70
2015,08,11,04,56,12.70
2015,08,11,04,57,12.70
2015,08,11,04,58,12.70
2015,08,11,04,59,12.70
2015,08,11,05,00,12.70
2015,08,11,05,01,12.70
2015,08,11,05,02,12.70
2015,08,11,05,03,12.70
2015,08,11,05,04,12.70
2015,08,11,05,05,12.70
2015,08,11,05,06,12.60
2015,08,11,05,07,12.60
2015,08,11,05,08,12.60
2015,08,11,05,09,12.60
2015,08,11,05,10,12.60
2015,08,11,05,11,12.50
2015,08,11,05,12,12.50
2015,08,11,05,13,12.50
2015,08,11,05,14,12.50
2015,08,11,05,15,12.40
2015,08,11,05,16,12.40
2015,08,11,05,17,12.40
2015,08,11,05,18,12.40
2015,08,11,05,19,12.40
2015,08,11,05,20,12.40
2015,08,11,05,21,12.40
2015,08,11,05,22,12.40
2015,08,11,05,23,12.40
2015,08,11,05,24,12.40
2015,08,11,05,25,12.40
2015,08,11,05,26,12.40
2015,08,11,05,27,12.40
2015,08,11,05,28,12.40
2015,08,11,05,29,12.40
2015,08,11,05,30,12.40
2015,08,11,05,31,12.40
2015,08,11,05,32,12.40
2015,08,11,05,33,12.40
2015,08,11,05,34,12.40
2015,08,11,05,35,12.40
2015,08,11,05,36,12.40
2015,08,11,05,37,12.40
2015,08,11,05,38,12.40
2015,08,11,05,39,12.40
2015,08,11,05,40,12.40
2015,08,11,05,41,12.40
2015,08,11,05,42,12.40
2015,08,11,05,43,12.40
2015,08,11,05,44,12.40
2015,08,11,05,45,12.40
2015,08,11,05,46,12.40
2015,08,11,05,47,12.40
2015,08,11,05,48,12.30
2015,08,11,05,49,12.30
2015,08,11,05,50,12.30
2015,08,11,05,51,12.30
2015,08,11,05,52,12.20
2015,08,11,05,53,12.20
2015,08,11,05,54,12.20
2015,08,11,05,55,12.20
2015,08,11,05,56,12.20
2015,08,11,05,57,12.20
2015,08,11,05,58,12.20
2015,08,11,05,59,12.20
2015,08,11,06,00,12.10
2015,08,11,06,01,12.10
2015,08,11,06,02,12.10
2015,08,11,06,03,12.10
2015,08,11,06,04,12.10
2015,08,11,06,05,12.10
2015,08,11,06,06,12.10
2015,08,11,06,07,12.10
2015,08,11,06,08,12.10
2015,08,11,06,09,12.10
2015,08,11,06,10,12.10
2015,08,11,06,11,12.10
2015,08,11,06,12,12.10
2015,08,11,06,13,12.10
2015,08,11,06,14,12.10
2015,08,11,06,15,12.10
2015,08,11,06,16,12.10
2015,08,11,06,17,12.10
2015,08,11,06,18,12.10
2015,08,11,06,19,12.10
2015,08,11,06,20,12.10
2015,08,11,06,21,12.10
2015,08,11,06,22,12.10
2015,08,11,06,23,12.10
2015,08,11,06,24,12.10
2015,08,11,06,25,12.20
2015,08,11,06,26,12.20
2015,08,11,06,27,12.20
2015,08,11,06,28,12.20
2015,08,11,06,29,12.20
2015,08,11,06,30,12.20
2015,08,11,06,31,12.20
2015,08,11,06,32,12.30
2015,08,11,06,33,12.30
2015,08,11,06,34,12.30
2015,08,11,06,35,12.30
2015,08,11,06,36,12.30
2015,08,11,06,37,12.20
2015,08,11,06,38,12.20
2015,08,11,06,39,12.30
2015,08,11,06,40,12.30
2015,08,11,06,41,12.30
2015,08,11,06,42,12.30
2015,08,11,06,43,12.30
2015,08,11,06,44,12.30
2015,08,11,06,45,12.30
2015,08,11,06,46,12.30
2015,08,11,06,47,12.30
2015,08,11,06,48,12.30
2015,08,11,06,49,12.30
2015,08,11,06,50,12.30
2015,08,11,06,51,12.30
2015,08,11,06,52,12.30
2015,08,11,06,53,12.30
2015,08,11,06,54,12.30
2015,08,11,06,55,12.30
2015,08,11,06,56,12.30
2015,08,11,06,57,12.40
2015,08,11,06,58,12.40
2015,08,11,06,59,12.40
2015,08,11,07,00,12.40
2015,08,11,07,01,12.50
2015,08,11,07,02,12.50
2015,08,11,07,03,12.50
2015,08,11,07,04,12.50
2015,08,11,07,05,12.60
2015,08,11,07,06,12.60
2015,08,11,07,07,12.60
2015,08,11,07,08,12.60
2015,08,11,07,09,12.60
2015,08,11,07,10,12.60
2015,08,11,07,11,12.70
2015,08,11,07,12,12.70
2015,08,11,07,13,12.70
2015,08,11,07,14,12.70
2015,08,11,07,15,12.70
2015,08,11,07,16,12.80
2015,08,11,07,17,12.80
2015,08,11,07,18,12.80
2015,08,11,07,19,12.90
2015,08,11,07,20,12.90
2015,08,11,07,21,13.00
2015,08,11,07,22,13.10
2015,08,11,07,23,13.10
2015,08,11,07,24,13.20
2015,08,11,07,25,13.20
2015,08,11,07,26,13.30
2015,08,11,07,27,13.30
2015,08,11,07,28,13.40
2015,08,11,07,29,13.40
2015,08,11,07,30,13.50
2015,08,11,07,31,13.50
2015,08,11,07,32,13.60
2015,08,11,07,33,13.60
2015,08,11,07,34,13.70
2015,08,11,07,35,13.70
2015,08,11,07,36,13.80
2015,08,11,07,37,13.80
2015,08,11,07,38,13.90
2015,08,11,07,39,13.90
2015,08,11,07,40,14.00
2015,08,11,07,41,14.10
2015,08,11,07,42,14.20
2015,08,11,07,43,14.20
2015,08,11,07,44,14.30
2015,08,11,07,45,14.40
2015,08,11,07,46,14.40
2015,08,11,07,47,14.50
2015,08,11,07,48,14.60
2015,08,11,07,49,14.70
2015,08,11,07,50,14.80
2015,08,11,07,51,14.80
2015,08,11,07,52,14.90
2015,08,11,07,53,15.00
2015,08,11,07,54,15.10
2015,08,11,07,55,15.20
2015,08,11,07,56,15.30
2015,08,11,07,57,15.30
2015,08,11,07,58,15.40
2015,08,11,07,59,15.50
2015,08,11,08,00,15.60
2015,08,11,08,01,15.70
2015,08,11,08,02,15.80
2015,08,11,08,03,15.90
2015,08,11,08,04,16.00
2015,08,11,08,05,16.20
2015,08,11,08,06,16.30
2015,08,11,08,07,16.30
2015,08,11,08,08,16.40
2015,08,11,08,09,16.40
2015,08,11,08,10,16.50
2015,08,11,08,11,16.50
2015,08,11,08,12,16.60
2015,08,11,08,13,16.60
2015,08,11,08,14,16.70
2015,08,11,08,15,16.80
2015,08,11,08,16,16.80
2015,08,11,08,17,16.90
2015,08,11,08,18,16.90
2015,08,11,08,19,17.00
2015,08,11,08,20,17.10
2015,08,11,08,21,17.10
2015,08,11,08,22,17.20
2015,08,11,08,23,17.20
2015,08,11,08,24,17.30
2015,08,11,08,25,17.40
2015,08,11,08,26,17.40
2015,08,11,08,27,17.50
2015,08,11,08,28,17.50
2015,08,11,08,29,17.50
2015,08,11,08,30,17.60
2015,08,11,08,31,17.60
2015,08,11,08,32,17.60
2015,08,11,08,33,17.60
2015,08,11,08,34,17.50
2015,08,11,08,35,17.50
2015,08,11,08,36,17.50
2015,08,11,08,37,17.50
2015,08,11,08,38,17.50
2015,08,11,08,39,17.40
2015,08,11,08,40,17.40
2015,08,11,08,41,17.40
2015,08,11,08,42,17.30
2015,08,11,08,43,17.30
2015,08,11,08,44,17.30
2015,08,11,08,45,17.30
2015,08,11,08,46,17.30
2015,08,11,08,47,17.30
2015,08,11,08,48,17.30
2015,08,11,08,49,17.30
2015,08,11,08,50,17.40
2015,08,11,08,51,17.50
2015,08,11,08,52,17.50
2015,08,11,08,53,17.70
2015,08,11,08,54,17.80
2015,08,11,08,55,17.90
2015,08,11,08,56,18.10
2015,08,11,08,57,18.20
2015,08,11,08,58,18.30
2015,08,11,08,59,18.40
2015,08,11,09,00,18.50
2015,08,11,09,01,18.60
2015,08,11,09,02,18.70
2015,08,11,09,03,18.80
2015,08,11,09,04,18.80
2015,08,11,09,05,18.80
2015,08,11,09,06,18.90
2015,08,11,09,07,18.90
2015,08,11,09,08,18.90
2015,08,11,09,09,18.90
2015,08,11,09,10,19.00
2015,08,11,09,11,19.00
2015,08,11,09,12,19.00
2015,08,11,09,13,19.10
2015,08,11,09,14,19.20
2015,08,11,09,15,19.20
2015,08,11,09,16,19.30
2015,08,11,09,17,19.40
2015,08,11,09,18,19.50
2015,08,11,09,19,19.50
2015,08,11,09,20,19.60
2015,08,11,09,21,19.70
2015,08,11,09,22,19.70
2015,08,11,09,23,19.80
2015,08,11,09,24,19.90
2015,08,11,09,25,20.00
2015,08,11,09,26,20.00
2015,08,11,09,27,20.10
2015,08,11,09,28,20.10
2015,08,11,09,29,20.10
2015,08,11,09,30,20.00
2015,08,11,09,31,20.00
2015,08,11,09,32,19.90
2015,08,11,09,33,19.90
2015,08,11,09,34,19.80
2015,08,11,09,35,19.80
2015,08,11,09,36,19.80
2015,08,11,09,37,19.80
2015,08,11,09,38,19.80
2015,08,11,09,39,19.90
2015,08,11,09,40,19.90
2015,08,11,09,41,19.90
2015,08,11,09,42,20.00
2015,08,11,09,43,20.00
2015,08,11,09,44,20.10
2015,08,11,09,45,20.20
2015,08,11,09,46,20.20
2015,08,11,09,47,20.30
2015,08,11,09,48,20.40
2015,08,11,09,49,20.50
2015,08,11,09,50,20.50
2015,08,11,09,51,20.60
2015,08,11,09,52,20.70
2015,08,11,09,53,20.80
2015,08,11,09,54,21.00
2015,08,11,09,55,21.10
2015,08,11,09,56,21.20
2015,08,11,09,57,21.30
2015,08,11,09,58,21.40
2015,08,11,09,59,21.50
2015,08,11,10,00,21.50
2015,08,11,10,01,21.60
2015,08,11,10,02,21.60
2015,08,11,10,03,21.60
2015,08,11,10,04,21.70
2015,08,11,10,05,21.70
2015,08,11,10,06,21.80
2015,08,11,10,07,21.80
2015,08,11,10,08,21.90
2015,08,11,10,09,22.00
2015,08,11,10,10,22.00
2015,08,11,10,11,22.10
2015,08,11,10,12,22.10
2015,08,11,10,13,22.20
2015,08,11,10,14,22.20
2015,08,11,10,15,22.30
2015,08,11,10,16,22.40
2015,08,11,10,17,22.40
2015,08,11,10,18,22.50
2015,08,11,10,19,22.60
2015,08,11,10,20,22.60
2015,08,11,10,21,22.70
2015,08,11,10,22,22.70
2015,08,11,10,23,22.80
2015,08,11,10,24,22.90
2015,08,11,10,25,23.00
2015,08,11,10,26,23.00
2015,08,11,10,27,23.10
2015,08,11,10,28,23.10
2015,08,11,10,29,23.10
2015,08,11,10,30,23.20
2015,08,11,10,31,23.20
2015,08,11,10,32,23.20
2015,08,11,10,33,23.20
2015,08,11,10,34,23.20
2015,08,11,10,35,23.20
2015,08,11,10,36,23.20
2015,08,11,10,37,23.20
2015,08,11,10,38,23.20
2015,08,11,10,39,23.20
2015,08,11,10,40,23.20
2015,08,11,10,41,23.20
2015,08,11,10,42,23.20
2015,08,11,10,43,23.20
2015,08,11,10,44,23.20
2015,08,11,10,45,23.20
2015,08,11,10,46,23.20
2015,08,11,10,47,23.20
2015,08,11,10,48,23.20
2015,08,11,10,49,23.20
2015,08,11,10,50,23.20
2015,08,11,10,51,23.10
2015,08,11,10,52,23.10
2015,08,11,10,53,23.00
2015,08,11,10,54,22.90
2015,08,11,10,55,22.80
2015,08,11,10,56,22.80
2015,08,11,10,57,22.70
2015,08,11,10,58,22.70
2015,08,11,10,59,22.70
2015,08,11,11,00,22.70
2015,08,11,11,01,22.70
2015,08,11,11,02,22.80
2015,08,11,11,03,22.80
2015,08,11,11,04,22.90
2015,08,11,11,05,22.90
2015,08,11,11,06,22.90
2015,08,11,11,07,23.00
2015,08,11,11,08,23.00
2015,08,11,11,09,23.10
2015,08,11,11,10,23.00
2015,08,11,11,11,23.00
2015,08,11,11,12,22.90
2015,08,11,11,13,22.80
2015,08,11,11,14,22.70
2015,08,11,11,15,22.70
2015,08,11,11,16,22.60
2015,08,11,11,17,22.60
2015,08,11,11,18,22.60
2015,08,11,11,19,22.60
2015,08,11,11,20,22.60
2015,08,11,11,21,22.60
2015,08,11,11,22,22.60
2015,08,11,11,23,22.70
2015,08,11,11,24,22.70
2015,08,11,11,25,22.70
2015,08,11,11,26,22.70
2015,08,11,11,27,22.60
2015,08,11,11,28,22.60
2015,08,11,11,29,22.60
2015,08,11,11,30,22.60
2015,08,11,11,31,22.50
2015,08,11,11,32,22.50
2015,08,11,11,33,22.40
2015,08,11,11,34,22.40
2015,08,11,11,35,22.40
2015,08,11,11,36,22.40
2015,08,11,11,37,22.40
2015,08,11,11,38,22.50
2015,08,11,11,39,22.50
2015,08,11,11,40,22.60
2015,08,11,11,41,22.70
2015,08,11,11,42,22.70
2015,08,11,11,43,22.80
2015,08,11,11,44,22.90
2015,08,11,11,45,23.00
2015,08,11,11,46,23.10
2015,08,11,11,47,23.10
2015,08,11,11,48,23.10
2015,08,11,11,49,23.20
2015,08,11,11,50,23.20
2015,08,11,11,51,23.30
2015,08,11,11,52,23.40
2015,08,11,11,53,23.50
2015,08,11,11,54,23.50
2015,08,11,11,55,23.60
2015,08,11,11,56,23.60
2015,08,11,11,57,23.70
2015,08,11,11,58,23.70
2015,08,11,11,59,23.70
2015,08,11,12,00,23.70
2015,08,11,12,01,23.70
2015,08,11,12,02,23.70
2015,08,11,12,03,23.70
2015,08,11,12,04,23.70
2015,08,11,12,05,23.70
2015,08,11,12,06,23.80
2015,08,11,12,07,23.80
2015,08,11,12,08,23.80
2015,08,11,12,09,23.90
2015,08,11,12,10,23.90
2015,08,11,12,11,23.90
2015,08,11,12,12,24.00
2015,08,11,12,13,23.90
2015,08,11,12,14,23.90
2015,08,11,12,15,23.90
2015,08,11,12,16,23.80
2015,08,11,12,17,23.80
2015,08,11,12,18,23.70
2015,08,11,12,19,23.70
2015,08,11,12,20,23.70
2015,08,11,12,21,23.70
2015,08,11,12,22,23.70
2015,08,11,12,23,23.70
2015,08,11,12,24,23.60
2015,08,11,12,25,23.60
2015,08,11,12,26,23.60
2015,08,11,12,27,23.60
2015,08,11,12,28,23.60
2015,08,11,12,29,23.60
2015,08,11,12,30,23.50
2015,08,11,12,31,23.40
2015,08,11,12,32,23.30
2015,08,11,12,33,23.20
2015,08,11,12,34,23.20
2015,08,11,12,35,23.20
2015,08,11,12,36,23.20
2015,08,11,12,37,23.20
2015,08,11,12,38,23.20
2015,08,11,12,39,23.30
2015,08,11,12,40,23.40
2015,08,11,12,41,23.40
2015,08,11,12,42,23.50
2015,08,11,12,43,23.50
2015,08,11,12,44,23.60
2015,08,11,12,45,23.60
2015,08,11,12,46,23.70
2015,08,11,12,47,23.70
2015,08,11,12,48,23.80
2015,08,11,12,49,23.90
2015,08,11,12,50,23.90
2015,08,11,12,51,23.90
2015,08,11,12,52,23.80
2015,08,11,12,53,23.70
2015,08,11,12,54,23.70
2015,08,11,12,55,23.60
2015,08,11,12,56,23.70
2015,08,11,12,57,23.70
2015,08,11,12,58,23.70
2015,08,11,12,59,23.80
2015,08,11,13,00,23.80
2015,08,11,13,01,23.90
2015,08,11,13,02,23.90
2015,08,11,13,03,24.00
2015,08,11,13,04,24.10
2015,08,11,13,05,24.20
2015,08,11,13,06,24.20
2015,08,11,13,07,24.30
2015,08,11,13,08,24.30
2015,08,11,13,09,24.20
2015,08,11,13,10,24.10
2015,08,11,13,11,24.00
2015,08,11,13,12,23.90
2015,08,11,13,13,23.90
2015,08,11,13,14,23.90
2015,08,11,13,15,24.00
2015,08,11,13,16,24.00
2015,08,11,13,17,24.10
2015,08,11,13,18,24.20
2015,08,11,13,19,24.20
2015,08,11,13,20,24.10
2015,08,11,13,21,24.00
2015,08,11,13,22,24.00
2015,08,11,13,23,24.00
2015,08,11,13,24,24.00
2015,08,11,13,25,24.00
2015,08,11,13,26,24.00
2015,08,11,13,27,24.00
2015,08,11,13,28,24.00
2015,08,11,13,29,24.00
2015,08,11,13,30,24.10
2015,08,11,13,31,24.10
2015,08,11,13,32,24.10
2015,08,11,13,33,24.20
2015,08,11,13,34,24.30
2015,08,11,13,35,24.30
2015,08,11,13,36,24.40
2015,08,11,13,37,24.40
2015,08,11,13,38,24.50
2015,08,11,13,39,24.60
2015,08,11,13,40,24.70
2015,08,11,13,41,24.80
2015,08,11,13,42,24.90
2015,08,11,13,43,25.00
2015,08,11,13,44,25.10
2015,08,11,13,45,25.20
2015,08,11,13,46,25.30
2015,08,11,13,47,25.30
2015,08,11,13,48,25.30
2015,08,11,13,49,25.20
2015,08,11,13,50,25.20
2015,08,11,13,51,25.20
2015,08,11,13,52,25.20
2015,08,11,13,53,25.20
2015,08,11,13,54,25.20
2015,08,11,13,55,25.30
2015,08,11,13,56,25.40
2015,08,11,13,57,25.40
2015,08,11,13,58,25.40
2015,08,11,13,59,25.40
2015,08,11,14,00,25.40
2015,08,11,14,01,25.40
2015,08,11,14,02,25.30
2015,08,11,14,03,25.20
2015,08,11,14,04,25.00
2015,08,11,14,05,24.90
2015,08,11,14,06,24.80
2015,08,11,14,07,24.80
2015,08,11,14,08,24.80
2015,08,11,14,09,24.70
2015,08,11,14,10,24.60
2015,08,11,14,11,24.60
2015,08,11,14,12,24.60
2015,08,11,14,13,24.60
2015,08,11,14,14,24.60
2015,08,11,14,15,24.60
2015,08,11,14,16,24.60
2015,08,11,14,17,24.60
2015,08,11,14,18,24.60
2015,08,11,14,19,24.50
2015,08,11,14,20,24.40
2015,08,11,14,21,24.40
2015,08,11,14,22,24.40
2015,08,11,14,23,24.40
2015,08,11,14,24,24.40
2015,08,11,14,25,24.40
2015,08,11,14,26,24.40
2015,08,11,14,27,24.50
2015,08,11,14,28,24.60
2015,08,11,14,29,24.70
2015,08,11,14,30,24.80
2015,08,11,14,31,24.80
2015,08,11,14,32,24.80
2015,08,11,14,33,24.80
2015,08,11,14,34,24.80
2015,08,11,14,35,24.80
2015,08,11,14,36,24.80
2015,08,11,14,37,24.80
2015,08,11,14,38,24.70
2015,08,11,14,39,24.70
2015,08,11,14,40,24.70
2015,08,11,14,41,24.70
2015,08,11,14,42,24.70
2015,08,11,14,43,24.70
2015,08,11,14,44,24.70
2015,08,11,14,45,24.70
2015,08,11,14,46,24.60
2015,08,11,14,47,24.60
2015,08,11,14,48,24.70
2015,08,11,14,49,24.70
2015,08,11,14,50,24.80
2015,08,11,14,51,24.80
2015,08,11,14,52,24.90
2015,08,11,14,53,24.90
2015,08,11,14,54,24.90
2015,08,11,14,55,25.00
2015,08,11,14,56,25.00
2015,08,11,14,57,24.90
2015,08,11,14,58,24.90
2015,08,11,14,59,24.90
2015,08,11,15,00,24.90
2015,08,11,15,01,24.90
2015,08,11,15,02,25.00
2015,08,11,15,03,25.10
2015,08,11,15,04,25.20
2015,08,11,15,05,25.20
2015,08,11,15,06,25.20
2015,08,11,15,07,25.20
2015,08,11,15,08,25.30
2015,08,11,15,09,25.30
2015,08,11,15,10,25.30
2015,08,11,15,11,25.30
2015,08,11,15,12,25.40
2015,08,11,15,13,25.40
2015,08,11,15,14,25.40
2015,08,11,15,15,25.40
2015,08,11,15,16,25.40
2015,08,11,15,17,25.40
2015,08,11,15,18,25.40
2015,08,11,15,19,25.40
2015,08,11,15,20,25.30
2015,08,11,15,21,25.30
2015,08,11,15,22,25.10
2015,08,11,15,23,25.00
2015,08,11,15,24,24.80
2015,08,11,15,25,24.70
2015,08,11,15,26,24.50
2015,08,11,15,27,24.40
2015,08,11,15,28,24.30
2015,08,11,15,29,24.20
2015,08,11,15,30,24.10
2015,08,11,15,31,24.00
2015,08,11,15,32,24.00
2015,08,11,15,33,23.90
2015,08,11,15,34,23.90
2015,08,11,15,35,23.90
2015,08,11,15,36,23.80
2015,08,11,15,37,23.80
2015,08,11,15,38,23.80
2015,08,11,15,39,23.80
2015,08,11,15,40,23.80
2015,08,11,15,41,23.80
2015,08,11,15,42,23.90
2015,08,11,15,43,23.90
2015,08,11,15,44,24.00
2015,08,11,15,45,24.10
2015,08,11,15,46,24.20
2015,08,11,15,47,24.30
2015,08,11,15,48,24.40
2015,08,11,15,49,24.50
2015,08,11,15,50,24.60
2015,08,11,15,51,24.70
2015,08,11,15,52,24.70
2015,08,11,15,53,24.80
2015,08,11,15,54,24.80
2015,08,11,15,55,24.80
2015,08,11,15,56,24.80
2015,08,11,15,57,24.80
2015,08,11,15,58,24.80
2015,08,11,15,59,24.80
2015,08,11,16,00,24.80
2015,08,11,16,01,24.80
2015,08,11,16,02,24.80
2015,08,11,16,03,24.80
2015,08,11,16,04,24.90
2015,08,11,16,05,24.90
2015,08,11,16,06,25.00
2015,08,11,16,07,25.10
2015,08,11,16,08,25.10
2015,08,11,16,09,25.10
2015,08,11,16,10,25.10
2015,08,11,16,11,25.10
2015,08,11,16,12,25.10
2015,08,11,16,13,25.00
2015,08,11,16,14,25.00
2015,08,11,16,15,24.90
2015,08,11,16,16,24.80
2015,08,11,16,17,24.70
2015,08,11,16,18,24.60
2015,08,11,16,19,24.50
2015,08,11,16,20,24.50
2015,08,11,16,21,24.40
2015,08,11,16,22,24.40
2015,08,11,16,23,24.40
2015,08,11,16,24,24.40
2015,08,11,16,25,24.40
2015,08,11,16,26,24.40
2015,08,11,16,27,24.50
2015,08,11,16,28,24.50
2015,08,11,16,29,24.60
2015,08,11,16,30,24.60
2015,08,11,16,31,24.70
2015,08,11,16,32,24.70
2015,08,11,16,33,24.70
2015,08,11,16,34,24.70
2015,08,11,16,35,24.80
2015,08,11,16,36,24.80
2015,08,11,16,37,24.80
2015,08,11,16,38,24.80
2015,08,11,16,39,24.80
2015,08,11,16,40,24.80
2015,08,11,16,41,24.80
2015,08,11,16,42,24.80
2015,08,11,16,43,24.80
2015,08,11,16,44,24.80
2015,08,11,16,45,24.80
2015,08,11,16,46,24.80
2015,08,11,16,47,24.80
2015,08,11,16,48,24.80
2015,08,11,16,49,24.80
2015,08,11,16,50,24.80
2015,08,11,16,51,24.80
2015,08,11,16,52,24.80
2015,08,11,16,53,24.80
2015,08,11,16,54,24.80
2015,08,11,16,55,24.80
2015,08,11,16,56,24.80
2015,08,11,16,57,24.90
2015,08,11,16,58,24.90
2015,08,11,16,59,24.90
2015,08,11,17,00,25.00
2015,08,11,17,01,25.00
2015,08,11,17,02,25.00
2015,08,11,17,03,25.10
2015,08,11,17,04,25.10
2015,08,11,17,05,25.00
2015,08,11,17,06,25.00
2015,08,11,17,07,24.90
2015,08,11,17,08,24.90
2015,08,11,17,09,24.90
2015,08,11,17,10,24.90
2015,08,11,17,11,24.80
2015,08,11,17,12,24.90
2015,08,11,17,13,24.90
2015,08,11,17,14,24.90
2015,08,11,17,15,25.00
2015,08,11,17,16,25.10
2015,08,11,17,17,25.10
2015,08,11,17,18,25.20
2015,08,11,17,19,25.20